Location: Kidów
(50.5072°N, 19.7009°E)
Time: 08:52:23
(UTC+00:00)

Daily predictions for brighter satellites

Satellite Brightness Start Highest point End
(mag) Time Altitude Azimuth Time Altitude Azimuth Time Altitude Azimuth
Cosmos 1833 Rocket 4.2 19:29:54 10° NNW 19:34:40 27° NE 19:39:23 10° E
ATLAS 5 CENTAUR R/B 4.4 19:30:36 10° SSE 19:35:05 24° E 19:45:44 10° NE
SL-14 R/B 3.8 19:32:38 10° SSE 19:36:05 37° E 19:39:32 10° NNE
Cosmos 1238 Rocket 3.4 19:32:20 10° S 19:37:12 84° W 19:41:58 10° N
ERS-1 Rocket 4.5 19:32:58 10° SSW 19:37:31 34° W 19:42:05 10° NNW
Cosmos 1066 Rocket 4.3 19:36:28 10° S 19:42:08 73° E 19:47:57 10° NNE
Cosmos 1151 Rocket 4.2 19:38:31 10° SSE 19:42:10 27° E 19:45:49 10° NNE
Meteor 2-4 Rocket 4.0 19:38:14 10° SSW 19:43:58 83° WNW 19:49:55 10° N
SL-16 R/B 4.3 19:40:36 10° NW 19:44:49 22° W 19:49:00 10° SSW
NOSS 2-2 (E) 3.1 19:42:57 10° SW 19:46:14 67° NW 19:49:13 10° NE
Cosmos 1844 3.8 19:40:50 10° SSW 19:46:30 60° ESE 19:52:13 10° NE
SL-24 R/B - RUBIN 2 3.7 19:42:21 10° SSW 19:46:46 53° SE 19:51:02 10° NE
SL-08 R/B 3.6 19:42:25 10° N 19:47:02 72° WNW 19:51:34 10° SSW
NOSS 3-2 (C) 4.3 19:45:46 10° SSE 19:49:30 21° ESE 19:53:42 10° ENE
CZ-4B R/B 3.8 19:45:19 10° SSE 19:50:17 60° ENE 19:55:24 10° N
Cosmos 1766 Rocket 4.4 19:46:46 10° NNW 19:51:00 50° W 19:55:15 10° S
Cosmos 1953 4.2 19:50:19 10° NNE 19:52:29 15° ENE 19:54:37 10° ESE
Okean O Rocket 2.3 19:49:03 10° S 19:53:17 52° W 19:57:35 10° NNW
In-Cosmos 22 4.4 19:48:29 10° S 19:54:07 58° E 19:59:45 10° NNE
CZ-2C R/B 3.4 19:52:29 10° SE 19:54:46 24° ENE 19:57:03 10° NNE
Cosmos 1943 4.2 19:52:29 10° NW 19:57:42 40° WSW 20:02:53 10° S
ATLAS 2AS CENTAUR R/B 4.1 19:54:48 10° WNW 20:00:24 28° WSW 20:06:01 10° S
Cosmos 2219 4.5 19:58:03 10° SW 20:03:25 46° NW 20:08:50 10° NNE
Cosmos 1655 Rocket 4.2 19:58:41 10° NNW 20:05:02 79° W 20:11:25 10° S
Cosmos 1461 2.5 20:05:05 10° NW 20:08:35 67° SW 20:11:30 14° SSE
Meteor 1-18 Rocket 4.4 20:03:41 10° S 20:09:30 89° ESE 20:15:27 10° NNE
Cosmos 2298 Rocket 4.4 20:05:11 10° NNW 20:10:26 62° WSW 20:15:38 10° S
CZ-4B R/B 2.9 20:07:56 10° S 20:11:47 76° WSW 20:15:45 10° NNW
USA 186 3.2 20:11:59 10° SSW 20:13:51 20° W 20:15:39 10° NW
Cosmos 1607 4.1 20:09:05 10° NW 20:15:31 88° NE 20:21:26 13° SE
Cosmos 1500 Rocket 3.6 20:11:43 10° N 20:16:04 69° ENE 20:19:50 13° SSE
Sich 1 3.4 20:12:24 10° NNW 20:16:38 62° W 20:20:51 10° S
Iridium 4 Rocket 4.1 20:15:34 12° SSE 20:20:17 45° E 20:25:05 10° NNE
GP-B 3.4 20:16:16 10° N 20:20:34 52° E 20:24:13 14° SSE
Cosmos 2285 Rocket 4.1 20:16:06 10° NNW 20:22:29 88° ENE 20:28:11 14° SSE
NOSS 2-3 (D) 4.3 20:20:35 12° S 20:23:10 24° ESE 20:26:15 10° ENE
Helios 1B rocket 4.3 20:24:22 10° E 20:26:26 15° ENE 20:28:31 10° NNE
Terra 4.4 20:24:15 10° WSW 20:26:44 14° W 20:29:13 10° NW
CENTAUR R/B 3.7 20:25:05 10° WSW 20:30:51 50° NNW 20:38:09 10° NE
Cosmos 1758 4.0 20:27:40 10° NNW 20:31:13 45° W 20:34:45 10° SSW
Cosmos 1943 Rocket 4.0 20:35:06 12° SE 20:37:30 15° E 20:40:33 10° ENE
BREEZE-M DEB (TANK) 1.9 20:36:52 10° W 20:38:55 42° SSW 20:39:52 24° SE
SPOT 3 Rocket 4.5 20:34:28 10° S 20:39:20 43° W 20:44:15 10° NNW
Ariane Rocket 3.8 20:44:08 10° S 20:48:57 45° W 20:53:50 10° NNW
Cosmos 1328 Rocket 4.3 20:47:48 18° SSE 20:50:25 36° E 20:54:25 10° NNE
NOSS 2-3 (E) 3.4 20:47:13 11° SSW 20:50:32 44° SE 20:54:10 10° NE
Cosmos 1805 Rocket 4.3 20:48:56 10° NNW 20:53:06 48° W 20:56:46 13° SSW
USA 215 3.3 20:50:09 14° SE 20:55:57 71° SW 21:02:30 10° WNW
Cosmos 1340 Rocket 4.5 20:53:16 10° NW 20:56:25 25° W 20:59:32 10° SSW
Lacrosse 5 rocket 2.6 20:57:40 18° ESE 20:57:40 18° ESE 20:59:40 10° E
Cosmos 1408 Rocket 4.5 20:53:03 10° NNW 20:57:14 44° W 21:01:00 12° SSW
Cosmos 1666 Rocket 3.8 20:53:24 10° N 20:57:44 58° ENE 21:00:30 21° SSE
NOSS 3-2 (A) 3.7 20:53:01 10° WSW 20:58:08 65° NW 21:04:24 10° NE
Cosmos 1743 Rocket 3.9 21:00:25 10° NNW 21:04:41 61° W 21:07:49 18° S
Cosmos 1703 3.0 21:04:34 18° SSW 21:06:48 64° WNW 21:09:58 10° N
S3M 4.0 21:04:02 17° S 21:08:47 67° E 21:14:53 10° NNE
GEOS 3 Rocket 3.9 21:04:15 13° SE 21:08:59 70° NE 21:14:21 10° NW
Cosmos 1844 Rocket 4.2 21:04:28 10° WSW 21:09:38 38° NW 21:14:50 10° NNE
Meteor 1-22 Rocket 4.2 21:04:21 10° NNW 21:09:41 73° W 21:13:31 19° S
Meteor 1-15 Rocket 4.3 21:08:50 10° NNW 21:14:43 87° E 21:18:45 21° SSE
Cosmos 1833 Rocket 2.7 21:13:30 10° NNW 21:19:09 75° WSW 21:22:56 22° SSE
Cosmos 1151 Rocket 4.4 21:15:25 10° SW 21:19:24 35° WNW 21:23:25 10° N
ARGOS Delta rocket 4.5 21:14:28 10° NNE 21:19:43 49° E 21:22:52 22° SSE
Cosmos 1709 Rocket 4.0 21:13:50 10° N 21:20:13 88° E 21:24:50 20° S
Meteor 1-16 Rocket 4.3 21:17:31 10° N 21:23:00 70° ENE 21:26:46 22° SSE
Spot 4 4.4 21:20:33 19° SE 21:23:43 50° ENE 21:28:24 10° N
Cosmos 883 Rocket 4.5 21:19:18 19° S 21:23:50 72° E 21:29:57 10° NNE
Cosmos 2082 Rocket 3.5 21:19:25 10° NNW 21:24:34 34° NE 21:29:39 10° ESE
CZ-2C R/B 4.3 21:23:48 12° SW 21:25:15 16° W 21:27:07 10° NW
Cosmos 1953 2.7 21:24:12 10° NNW 21:27:40 48° W 21:29:35 23° SSW
Meteor 1-23 Rocket 4.3 21:25:42 21° S 21:29:25 65° E 21:34:56 10° NNE
IKONOS-2 4.4 21:26:31 10° NNE 21:30:39 82° WNW 21:33:24 20° SSW
Cosmos 2278 Rocket 3.2 21:28:07 20° SE 21:30:42 29° ESE 21:35:29 10° NE
Cosmos 1633 Rocket 3.1 21:31:16 10° NNW 21:35:39 72° W 21:38:07 25° S
Meteor 1-13 Rocket 4.5 21:33:10 15° SSW 21:38:08 75° WNW 21:44:07 10° N
NOSS 3-2 (C) 3.3 21:34:17 10° SW 21:39:25 78° NW 21:45:41 10° NE
Cosmos 1624 Rocket 4.2 21:38:15 10° NNW 21:43:33 67° ENE 21:47:03 21° SE
NOSS 2-3 (C) 2.9 21:42:37 17° SW 21:45:10 89° SE 21:48:51 10° NE
Cosmos 1680 Rocket 3.9 21:42:32 25° SSE 21:45:15 48° ESE 21:50:15 10° NNE
CZ-2C R/B 4.3 21:41:03 10° NNE 21:45:57 31° E 21:48:40 20° SE
Meteor 1-12 Rocket 4.3 21:41:35 10° N 21:47:17 78° ENE 21:50:53 24° SSE
Cosmos 1400 Rocket 3.1 21:45:50 10° N 21:49:26 49° ENE 21:51:03 28° SE
Cosmos 2056 Rocket 3.5 21:45:10 10° NNW 21:50:19 77° ENE 21:53:26 24° SSE
USA 238 DEB 3.9 21:48:54 23° S 21:52:25 44° ESE 21:58:42 10° NE
USA 238 3.9 21:49:09 23° S 21:52:38 44° ESE 21:58:55 10° NE
Helios 1A 3.5 21:50:54 10° N 21:54:44 51° WNW 21:57:27 18° SW
ACS3 Solar Sail 3.3 21:52:19 10° NE 21:56:30 20° E 21:59:49 13° SE
Cosmos 2344 3.4 21:50:02 10° SSW 21:57:49 75° SE 22:05:00 10° NE
Helios 1B rocket 2.4 21:57:42 31° SSW 21:59:00 51° WSW 22:02:24 10° NNW
ARIANE 5 R/B 2.6 21:59:12 28° S 22:01:30 79° WSW 22:05:59 10° NNW
BREEZE-M R/B 4.4 21:58:09 10° SW 22:03:23 58° SSE 22:14:07 10° ENE
Cosmos 1470 Rocket 4.0 22:03:05 10° NNW 22:07:26 52° W 22:09:41 26° SSW
Cosmos 1812 3.2 22:06:31 10° NNE 22:07:25 20° NE 22:07:25 20° NE
Okean 2 3.3 22:07:03 29° SSW 22:08:53 71° W 22:12:45 10° N
NOSS 2-3 (D) 4.5 22:09:09 10° WSW 22:12:40 41° NW 22:16:28 10° NE
ALOS 2 2.7 22:11:55 30° S 22:14:02 70° WSW 22:18:27 10° NNW
Cosmos 1933 Rocket 3.4 22:10:32 10° N 22:14:52 87° ENE 22:16:54 31° S
Cosmos 1943 Rocket 2.1 22:16:32 22° SSW 22:20:20 81° ESE 22:26:00 10° NNE
Cosmos 2074 Rocket 4.0 22:15:18 10° N 22:21:34 85° E 22:25:27 25° S
Cosmos 1441 Rocket 3.0 22:21:17 41° SSE 22:22:03 54° E 22:25:13 10° NNE
NOSS 2-1 (E) 3.9 22:23:41 31° SE 22:24:00 31° SE 22:26:57 10° ENE
Cosmos 1295 Rocket 4.4 22:18:55 10° NNW 22:25:02 80° W 22:28:44 25° S
Cosmos 923 Rocket 4.3 22:21:15 17° SW 22:25:14 66° WNW 22:30:27 10° NNE
CZ-2C R/B 4.3 22:22:05 10° N 22:26:40 56° WNW 22:29:46 20° SW
Cosmos 2112 Rocket 3.9 22:28:53 24° SSW 22:32:02 89° WNW 22:37:15 10° NNE
Lacrosse 5 rocket 0.9 22:30:44 17° WSW 22:33:21 84° NNW 22:36:51 10° ENE
CZ-2C R/B 2.6 22:31:43 24° SSE 22:34:51 76° ENE 22:40:06 10° NNW
USA 81 4.4 22:32:49 10° NNW 22:37:57 54° W 22:40:53 25° SSW
USA 215 4.4 22:37:29 20° SSW 22:39:44 24° SW 22:44:54 10° WNW
PSLV R/B 4.0 22:37:26 10° N 22:42:01 64° WNW 22:44:44 24° SSW
Timation 2 Rocket 4.1 22:42:27 25° S 22:46:15 66° ESE 22:52:44 10° NE
Cosmos 1869 Rocket 3.7 22:42:36 10° NNW 22:46:51 61° W 22:48:44 31° SSW
Cosmos 1452 Rocket 3.7 22:43:01 10° NNW 22:48:17 68° ENE 22:52:03 19° SE
Cosmos 1110 Rocket 3.9 22:43:11 10° NNW 22:48:24 83° WSW 22:51:24 26° SSE
MetOp-A 3.5 22:53:36 33° SSW 22:55:08 58° WSW 22:58:56 10° NNW
Nadezhda 1 Rocket 4.0 22:51:54 25° S 22:55:38 81° E 23:01:51 10° NNE
IRIDIUM 104 4.5 22:50:41 10° N 22:55:55 69° E 22:59:01 25° SSE
NOSS 2-1 (D) 2.7 22:55:58 34° SW 22:57:20 86° SE 23:00:23 10° NE
Cosmos 2154 Rocket 4.2 22:52:00 10° NNW 22:58:06 61° W 23:01:51 24° SSW
Cosmos 2184 Rocket 4.3 22:53:01 10° NNW 22:59:06 56° W 23:02:54 24° SSW
NOSS 2-1 (C) 2.7 22:59:06 36° SSW 23:00:21 77° SE 23:03:24 10° NE
USA-17 4.2 22:58:31 10° NW 23:01:39 62° SW 23:02:26 44° S
USA 59 Rocket -0.6 23:01:30 27° WSW 23:03:08 69° NW 23:06:06 10° NE
IRIDIUM 114 4.3 22:59:50 10° N 23:05:05 82° E 23:08:09 26° S
Cosmos 1707 Rocket 3.9 23:03:12 27° SSE 23:05:17 53° E 23:09:34 10° NNE
NOSS 3-1 (C) 4.4 23:04:15 17° SE 23:05:58 20° ESE 23:09:47 10° ENE
Cosmos 1733 Rocket 2.9 23:02:42 10° N 23:07:01 89° E 23:09:08 30° S
Cosmos 1315 Rocket 3.5 23:04:44 10° N 23:08:24 44° ENE 23:10:36 21° SE
Cosmos 2082 Rocket 2.4 23:03:24 10° NW 23:08:52 52° WSW 23:11:52 26° S
Cosmos 2341 Rocket 4.3 23:03:25 10° N 23:09:39 63° ENE 23:14:23 18° SSE
IRIDIUM 103 4.3 23:09:00 10° N 23:14:15 85° W 23:17:17 26° S
Cosmos 2278 Rocket 2.7 23:09:54 16° SW 23:14:26 57° NW 23:20:03 10° NNE
Cosmos 1862 Rocket 3.5 23:13:23 30° S 23:15:26 73° E 23:19:44 10° NNE
ATLAS 5 CENTAUR R/B 2.8 23:16:47 14° ESE 23:16:47 14° ESE 23:18:22 10° E
Cosmos 1656 Rocket 3.8 23:13:56 26° S 23:16:57 59° ESE 23:22:24 10° NE
Cosmos 1331 Rocket 4.3 23:16:02 10° NNW 23:20:59 49° WSW 23:23:34 26° SSW
Okean 1-7 2.9 23:20:00 30° S 23:21:59 86° E 23:26:14 10° N
SL-8 Rocket 4.0 23:18:35 10° N 23:24:47 81° E 23:29:14 20° SSE
CZ-2C R/B 3.8 23:20:33 10° N 23:25:56 48° WNW 23:29:38 18° SW
COSMOS 2406 3.2 23:21:35 10° NNW 23:27:18 76° WSW 23:31:27 19° SSE
Cosmos 1048 Rocket 4.4 23:31:19 20° SW 23:34:53 57° WNW 23:40:06 10° NNE
SL-12 R/B(2) 4.5 23:30:21 21° SSW 23:35:58 62° ESE 23:45:29 10° NE
Cosmos 1908 Rocket 4.0 23:34:18 10° N 23:38:43 60° ENE 23:41:54 18° SSE
ACS3 Solar Sail 1.7 23:33:38 10° N 23:39:20 75° WNW 23:43:11 22° SSW
USA 238 DEB 4.2 23:37:06 10° WSW 23:43:14 55° NW 23:50:04 10° NE
USA 238 4.2 23:37:18 10° WSW 23:43:26 55° NW 23:50:17 10° NE
Lacrosse 4 Rocket 3.1 23:40:04 10° NNW 23:43:55 34° NE 23:47:45 10° ESE
Cosmos 1959 Rocket 4.5 23:38:00 10° N 23:44:14 88° E 23:49:03 18° S
ARIANE 6 FM1 Upper Stage 4.0 23:43:05 20° SSE 23:44:37 26° ESE 23:48:03 10° ENE
Geosat 4.1 23:41:10 10° NNE 23:46:10 71° NW 23:49:42 19° SW
Cosmos 2297 4.5 23:44:14 19° S 23:47:52 43° ESE 23:53:15 10° NE
BREEZE-M DEB (TANK) 2.7 23:43:10 10° WNW 23:51:57 61° SSW 23:55:10 10° ESE
